Tenerife, El Salvador

3:37 AM WET en Noviembre 16, 2018 (GMT +0000)
Tenerife

Tiempo Historia de GCXO - Julio, 2018

Change the Weather History Date:

Jueves, Julio 12, 2018

  Actual Average Record
Temperature  
Temperatura media 66 ° F -  
Temperatura máxima 71 ° F 73 ° F 96 ° F (2010)
Temperatura mínima 60 ° F 60 ° F 57 ° F (1996)
Growing Degree Days 16 (Base 50)    
Moisture  
Punto de rocío 59 ° F    
Average Humidity 83    
Maximum Humidity 94    
Minimum Humidity 55    
Precipitación  
Precipitación 0.00 pul - - ()
Presión al nivel del mar  
Presión al nivel del mar 30.17 pul    
Viento  
Velocidad del viento 18 mph ()    
Velocidad máxima del viento 26 mph    
Max Gust Speed 38 mph    
Visibilidad 6.9 Millas    
Eventos Niebla    
Averages and records for this station are not official NWS values.
T = Trace of Precipitation, MM = Missing Value Source: Averaged Metar Reports

Daily Weather History Graph

Daily Weather History Graph

Search for Another Location

Airport or City:

Astronomía

Jul. 12, 2018 Salida Puesta
Hora real 7:16 AM WEST 9:05 PM WEST
Crepúsculo civil 6:49 AM WEST 9:31 PM WEST
Crepúsculo náutico 6:17 AM WEST 10:03 PM WEST
Crepúsculo astronómico 5:44 AM WEST 10:37 PM WEST
Luna 6:29 AM WEST (7/12) 8:38 PM WEST (7/12)
Horas de luz 14h 42m
Horas de luz
13h 49m
Creciente menguante, 1% of the Moon is Illuminated
Jul 12
Creciente menguante
Jul 13
Nueva
Jul 19
Cuarto creciente
Jul 27
Luna llena
Ago 4
Cuarto menguante

Hourly Weather History & Observations

Hora (WEST) Temp. Punto de rocío Humedad Presión Visibilidad Wind Dir Velocidad del viento Velocidad de ráfagas Precip Eventos Condiciones
12:00 AM 62.6 ° F 60.8 ° F 94% 30.21 pul 6.2 mi ONO 20.7 mph 32.2 mph N/A   Nublado
12:30 AM 62.6 ° F 60.8 ° F 94% 30.21 pul 6.2 mi ONO 19.6 mph - N/A   Nublado
1:00 AM 62.6 ° F 60.8 ° F 94% 30.21 pul 6.2 mi ONO 20.7 mph - N/A   Nublado
1:30 AM 62.6 ° F 60.8 ° F 94% 30.21 pul 6.2 mi ONO 19.6 mph - N/A   Nublado
2:00 AM 62.6 ° F 60.8 ° F 94% 30.21 pul 6.2 mi ONO 18.4 mph - N/A   Nublado
2:30 AM 62.6 ° F 60.8 ° F 94% 30.18 pul 6.2 mi Oeste 19.6 mph - N/A   Nublado
3:30 AM 62.6 ° F 60.8 ° F 94% 30.18 pul 6.2 mi ONO 20.7 mph 33.4 mph N/A   Nublado
4:00 AM 62 ° F 61 ° F 94% 30.14 pul 7 mi ONO 21.9 mph - -  
4:00 AM 62.6 ° F 60.8 ° F 94% 30.18 pul 6.2 mi ONO 20.7 mph 32.2 mph N/A   Nublado
4:30 AM 62.6 ° F 60.8 ° F 94% 30.18 pul 6.2 mi NO 19.6 mph - N/A Niebla Bancos de niebla
5:00 AM 62.6 ° F 60.8 ° F 94% 30.18 pul 6.2 mi NO 18.4 mph 29.9 mph N/A   Muy nublado
5:30 AM 62.6 ° F 60.8 ° F 94% 30.18 pul 6.2 mi ONO 21.9 mph - N/A   Nublado
7:00 AM 61 ° F 60 ° F 94% 30.13 pul 6 mi ONO 25.3 mph - -   Parcialmente nublado
7:00 AM 62.6 ° F 60.8 ° F 94% 30.15 pul 6.2 mi ONO 26.5 mph 38.0 mph N/A Niebla Bancos de niebla
7:30 AM 62.6 ° F 60.8 ° F 94% 30.18 pul 6.2 mi NO 24.2 mph - N/A   Muy nublado
8:00 AM 62.6 ° F 60.8 ° F 94% 30.18 pul 6.2 mi NO 19.6 mph - N/A   Muy nublado
9:00 AM 62.6 ° F 59.0 ° F 88% 30.18 pul 6.2 mi NO 18.4 mph - N/A   Nubes dispersas
10:30 AM 64.4 ° F 59.0 ° F 83% 30.21 pul 6.2 mi NO 16.1 mph - N/A Niebla Bancos de niebla
11:00 AM 64.4 ° F 59.0 ° F 83% 30.21 pul 6.2 mi NO 17.3 mph - N/A Niebla Bancos de niebla
11:30 AM 66.2 ° F 59.0 ° F 78% 30.21 pul 6.2 mi NO 17.3 mph 28.8 mph N/A   Muy nublado
12:00 PM 68.0 ° F 59.0 ° F 73% 30.21 pul 6.2 mi NNO 13.8 mph - N/A   Muy nublado
1:00 PM 68 ° F 58 ° F 63% 30.14 pul 9 mi NO 16.1 mph - -   Muy nublado
1:30 PM 66.2 ° F 59.0 ° F 78% 30.21 pul 6.2 mi NO 19.6 mph - N/A   Muy nublado
2:00 PM 69.8 ° F 60.8 ° F 73% 30.18 pul 6.2 mi NO 19.6 mph - N/A   Muy nublado
2:30 PM 68.0 ° F 59.0 ° F 73% 30.18 pul 6.2 mi NNO 15.0 mph - N/A   Muy nublado
3:00 PM 69.8 ° F 57.2 ° F 64% 30.18 pul 6.2 mi NO 17.3 mph - N/A   Nubes dispersas
4:00 PM 69 ° F 56 ° F 55% 30.10 pul 19 mi NO 21.9 mph - -   Parcialmente nublado
4:00 PM 68.0 ° F 55.4 ° F 64% 30.18 pul 6.2 mi NO 21.9 mph - N/A   Nubes dispersas
4:30 PM 69.8 ° F 57.2 ° F 64% 30.15 pul 6.2 mi NO 18.4 mph - N/A   Nubes dispersas
5:00 PM 68.0 ° F 59.0 ° F 73% 30.15 pul 6.2 mi NO 21.9 mph - N/A   Nubes dispersas
5:30 PM 69.8 ° F 59.0 ° F 68% 30.15 pul 6.2 mi NO 21.9 mph - N/A   Nubes dispersas
6:00 PM 68.0 ° F 57.2 ° F 68% 30.15 pul 6.2 mi NO 21.9 mph - N/A   Nubes dispersas
6:30 PM 66.2 ° F 57.2 ° F 73% 30.15 pul 6.2 mi NNO 16.1 mph - N/A   Muy nublado
7:00 PM 66 ° F 56 ° F 63% 30.09 pul 19 mi NO 18.4 mph - -   Parcialmente nublado
7:00 PM 66.2 ° F 57.2 ° F 73% 30.15 pul 6.2 mi NO 18.4 mph - N/A   Nubes dispersas
7:30 PM 64.4 ° F 55.4 ° F 73% 30.15 pul 6.2 mi NNO 17.3 mph - N/A   Nubes dispersas
8:00 PM 62.6 ° F 57.2 ° F 82% 30.15 pul 6.2 mi NO 19.6 mph - N/A   Muy nublado
8:30 PM 62.6 ° F 57.2 ° F 82% 30.15 pul 6.2 mi NO 18.4 mph - N/A   Muy nublado
9:30 PM 60.8 ° F 59.0 ° F 94% 30.15 pul 6.2 mi NO 20.7 mph - N/A   Muy nublado
10:00 PM 62.6 ° F 59.0 ° F 88% 30.18 pul 6.2 mi ONO 20.7 mph - N/A   Muy nublado
10:30 PM 60.8 ° F 59.0 ° F 94% 30.15 pul 6.2 mi NO 21.9 mph - N/A   Muy nublado
11:00 PM 60.8 ° F 59.0 ° F 94% 30.18 pul 6.2 mi NO 20.7 mph - N/A   Muy nublado
11:30 PM 60.8 ° F 59.0 ° F 94% 30.18 pul 6.2 mi NO 17.3 mph - N/A   Muy nublado